Weather History for Newark Heath, OH

Change the Weather History Date:

Saturday, March 23, 2013

  Actual Average Record
Temperature  
Mean Temperature 36 °F -  
Max Temperature 48 °F 52 °F 77 °F (1966)
Min Temperature 23 °F 30 °F 10 °F (1960)
Degree Days  
Heating Degree Days 30    
Moisture  
Dew Point 21 °F    
Average Humidity 61    
Maximum Humidity 88    
Minimum Humidity 34    
Precipitation  
Precipitation 0.00 in - - ()
Sea Level Pressure  
Sea Level Pressure 30.03 in    
Wind  
Wind Speed 2 mph (NNW)    
Max Wind Speed 7 mph    
Max Gust Speed -    
Visibility 10 miles    
Events      
Averages and records for this station are not official NWS values.
T = Trace of Precipitation, MM = Missing Value Source: NWS Daily Summary

Daily Weather History Graph

Daily Weather History Graph

Search for Another Location

Airport:

Trip Planner

Search our weather history database for the weather conditions in past years. The results will help you decide how hot, cold, wet, or windy it might be!

Date:

Astronomy

Mar. 23, 2013 Rise Set
Actual Time 7:27 AM EDT 7:45 PM EDT
Civil Twilight 7:00 AM EDT 8:12 PM EDT
Nautical Twilight 6:29 AM EDT 8:44 PM EDT
Astronomical Twilight 5:56 AM EDT 9:16 PM EDT
Moon 4:10 PM EDT (3/23) 5:03 AM EDT (3/23)
Length of Visible Light 13h 11m
Length of Day
12h 17m
Waxing Gibbous, 85% of the Moon is Illuminated
Mar 23
Waxing Gibbous
Mar 27
Full
Apr 3
Last Quarter
Apr 10
New
Apr 18
First Quarter

Hourly Weather History & Observations

Time (EDT) Temp. Windchill Dew Point Humidity Pressure Visibility Wind Dir Wind Speed Gust Speed Precip Events Conditions
12:54 AM 26.1 °F - 21.9 °F 84% 30.04 in 9.0 mi Calm Calm - N/A   Clear
1:54 AM 26.1 °F - 21.0 °F 81% 30.04 in 10.0 mi Calm Calm - N/A   Clear
2:54 AM 24.1 °F - 21.0 °F 88% 30.03 in 10.0 mi Calm Calm - N/A   Clear
3:54 AM 23.0 °F - 19.0 °F 85% 30.03 in 10.0 mi Calm Calm - N/A   Clear
4:54 AM 23.0 °F - 19.0 °F 85% 30.03 in 9.0 mi Calm Calm - N/A   Clear
5:54 AM 23.0 °F - 19.0 °F 85% 30.02 in 8.0 mi Calm Calm - N/A   Clear
6:54 AM 23.0 °F - 18.0 °F 81% 30.04 in 7.0 mi Calm Calm - N/A   Clear
7:54 AM 23.0 °F - 19.0 °F 85% 30.05 in 7.0 mi Calm Calm - N/A   Clear
8:54 AM 28.0 °F - 24.1 °F 85% 30.07 in 7.0 mi Calm Calm - N/A   Mostly Cloudy
9:54 AM 34.0 °F - 25.0 °F 70% 30.07 in 10.0 mi Calm Calm - N/A   Clear
10:54 AM 39.0 °F 34.8 °F 21.0 °F 49% 30.07 in 10.0 mi SW 5.8 mph - N/A   Scattered Clouds
11:54 AM 41.0 °F 36.4 °F 21.9 °F 47% 30.06 in 10.0 mi Variable 6.9 mph - N/A   Partly Cloudy
12:54 PM 44.1 °F 40.8 °F 21.0 °F 40% 30.05 in 10.0 mi NW 5.8 mph - N/A   Clear
1:54 PM 44.1 °F 40.8 °F 19.9 °F 38% 30.04 in 10.0 mi WNW 5.8 mph - N/A   Clear
2:54 PM 46.0 °F 43.9 °F 21.9 °F 39% 30.03 in 10.0 mi NW 4.6 mph - N/A   Clear
3:54 PM 48.0 °F - 21.0 °F 34% 30.02 in 10.0 mi North 5.8 mph - N/A   Clear
4:54 PM 48.0 °F - 21.9 °F 36% 30.02 in 10.0 mi NW 4.6 mph - N/A   Clear
5:54 PM 46.9 °F - 21.0 °F 36% 30.01 in 10.0 mi WNW 4.6 mph - N/A   Clear
6:54 PM 46.0 °F 43.9 °F 21.0 °F 37% 30.00 in 10.0 mi Variable 4.6 mph - N/A   Clear
7:54 PM 42.1 °F - 21.0 °F 43% 30.01 in 10.0 mi Calm Calm - N/A   Clear
8:54 PM 39.0 °F 36.8 °F 21.0 °F 49% 30.01 in 10.0 mi North 3.5 mph - N/A   Clear
9:54 PM 39.0 °F 35.7 °F 23.0 °F 53% 30.01 in 10.0 mi NNE 4.6 mph - N/A   Clear
10:54 PM 36.0 °F 32.1 °F 24.1 °F 62% 29.99 in 10.0 mi NNE 4.6 mph - N/A   Clear
11:54 PM 34.0 °F 29.8 °F 24.1 °F 67% 29.98 in 10.0 mi NNE 4.6 mph - N/A   Clear